map of RIH home
RIH - Airport
Location
City:  Río Hato, Coclé, Panamá
Name:Scarlett Martinez International Airport
Old (Alt.):Río Hato International Airport
ICAO:MPSM
IATA:RIH

Details
Type:Airport (Aerodrome, Airfield)
Use:Public/Civil, International (customs port of entry)
Latitude:8°22'48"N (8.380000)
Longitude:80°07'46"W (-80.129443)
Elevation:119 ft (36 m)
Variation:4.04°W (WMM2015 magnetic declination)
-0.15° annual change
Runways:1
Longest:7874 × 148 ft (2400 × 45 m), paved

Time
Time Zone:UTC-5
Local Time:

Weather
METAR:MPSM 211900Z 32006KT 9999 SCT020 34/26 Q1009
TAF:MPSM 211100Z 2112/2218 00000KT 9000 FEW020
TEMPO 2117/2121 16004KT 9999 SCT018 SCT100

Related Locations
Nearby:
Farthest:CCK: 12104 mi / 19479 km
West Island (Pulau Panjang) [Cocos (Keeling) Islands], CC

Find:

   beyond  
but within

Other Information
Maps:
NOTAMs:
Links:
Sources:

  
  • flag of Panamá
  • flag of Coclé
  

Sectional Chart

Flight Planning
at skyvector.com

Satellite Image

Google Maps Satellite view

 

Copyright © 2004-2018 Karl L. Swartz. All rights reserved.
The Great Circle Mapper name and logo are trademarks of the Great Circle Mapper.
All other trademarks mentioned herein belong to their respective owners.
Please see credits for attibutions and further copyright information.

  Follow gcmap on Facebook Follow gcmap on Twitter Follow gcmap on Google+ GCmap on LinkedIn

hCard Microformat

Geo Microformat